Location: Barcelona
(41.3830°N, 2.1830°E)
Time: 15:16:28
(UTC+02:00)

ISS - Pass Details

Date: 04 March 2021
Orbit: 418 x 422 km, 51.6° (Epoch: 16 April)

Event Time Altitude Azimuth Distance (km) Brightness Sun altitude
Exits shadow 05:38:34 14° 349° (NNW) 1,294 -1.3 -20.0°
Maximum altitude 05:39:12 14° 2° (N) 1,265 -1.2 -19.9°
Drops below altitude 10° 05:41:08 10° 37° (NE) 1,500 -0.3 -19.5°
Sets 05:43:59 0° 63° (ENE) 2,364 1.4 -19.0°
